Location: Mentone
(34.5413°N, 85.5351°W)
Time: 18:57:25
(UTC-06:00)

Amateur Radio Satellites - All Passes

Search period start: 23 November 2014 18:27
Search period end: 24 November 2014 18:27
Location: Mentone, 34.5413°N, 85.5351°W

Satellite Date Start Highest point End Downlink Frequencies (MHz)
Time Altitude Azimuth
GONETS M04 23 Nov 18:34:41 18:42:51 40° 76° (ENE) 18:50:54
HO-68 23 Nov 18:45:38 18:51:33 29° 64° (ENE) 18:57:28 435.675
AIST 1 23 Nov 18:48:34 18:52:11 26° 89° (E) 18:55:49
CANX-2 23 Nov 18:56:08 18:58:43 16° 68° (ENE) 19:01:18 2200.000
CUBESAT XI-V 23 Nov 18:58:30 19:02:59 47° 286° (WNW) 19:07:25 437.345
COMPASS 1 23 Nov 19:07:57 19:10:10 14° 68° (ENE) 19:12:23 437.405
DOVE 4 23 Nov 19:12:24 19:14:25 13° 67° (ENE) 19:16:22 437.250
RS-15 23 Nov 19:19:55 19:26:09 16° 334° (NNW) 19:32:27 29.354- 29.394
PCSat 23 Nov 19:21:14 19:26:34 65° 113° (ESE) 19:31:56 145.827
CUTE 1.7 & AOD 2 23 Nov 19:29:41 19:33:32 36° 73° (ENE) 19:37:25 437.475
PHONESAT 2.4 23 Nov 19:36:46 19:40:25 53° 18° (NNE) 19:44:03 2401.200-2431.200
GOMX 1 23 Nov 19:39:40 19:44:09 36° 73° (ENE) 19:48:23 467.674
BEESAT 3 23 Nov 19:42:18 19:46:09 43° 114° (ESE) 19:50:05 437.485
UKube-1 23 Nov 19:45:41 19:48:28 17° 67° (ENE) 19:51:16 .
BRITE-PL 23 Nov 19:54:16 19:59:29 75° 77° (ENE) 20:04:19 437.365/2234.400
BEESAT 2 23 Nov 19:55:24 19:59:24 56° 116° (ESE) 20:03:29 435.950
Oscar 11 23 Nov 19:58:10 20:01:39 25° 70° (ENE) 20:05:10 145.826/435.025
VERMONT LUNAR 23 Nov 19:58:40 20:02:19 89° 205° (SSW) 20:05:56 437.305
CUBEBUG 2 23 Nov 19:58:48 20:01:05 14° 68° (ENE) 20:03:19 437.445
UWE-3 23 Nov 20:04:32 20:06:46 14° 68° (ENE) 20:08:58 435.000/436.395/437.385
CINEMA 3 23 Nov 20:05:35 20:09:25 29° 72° (ENE) 20:13:08 145.822/145.860
SEEDS 23 Nov 20:05:42 20:09:52 88° 77° (ENE) 20:14:05 437.485
STRAND 1 23 Nov 20:05:50 20:08:10 13° 296° (WNW) 20:10:30 437.568
DX 1 23 Nov 20:17:07 20:21:12 40° 72° (ENE) 20:25:18 434.975-435.025
AIST 2 23 Nov 20:18:18 20:22:20 47° 115° (ESE) 20:26:26 435.215
AIST 1 23 Nov 20:26:26 20:29:46 21° 284° (WNW) 20:33:08
AAUSAT CUBESAT 2 23 Nov 20:27:53 20:31:59 66° 259° (W) 20:36:08 437.432
CANX-2 23 Nov 20:30:30 20:34:21 34° 262° (W) 20:38:13 2200.000
GONETS M04 23 Nov 20:31:35 20:39:30 39° 273° (W) 20:47:22
HO-68 23 Nov 20:32:00 20:38:52 49° 259° (W) 20:45:48 435.675
VELOX 1 23 Nov 20:36:36 20:39:48 20° 68° (ENE) 20:42:59 145.980
COMPASS 1 23 Nov 20:41:39 20:45:32 38° 262° (W) 20:49:27 437.405
ZACube-1 23 Nov 20:43:36 20:47:27 34° 73° (ENE) 20:51:14 437.345
DELFI C3 23 Nov 20:46:04 20:50:07 80° 77° (ENE) 20:54:12 145.870
HUMSAT D 23 Nov 20:46:49 20:49:59 21° 70° (ENE) 20:53:08 437.325/437.525
DOVE 4 23 Nov 20:47:07 20:51:47 53° 260° (W) 20:56:12 437.250
50 SAT 23 Nov 20:52:55 20:55:55 20° 70° (ENE) 20:58:55 437.505
AISAT 23 Nov 21:00:11 21:04:18 36° 72° (ENE) 21:08:24 437.250
PCSat 23 Nov 21:07:02 21:10:26 17° 310° (NW) 21:13:50 145.827
CUTE 1.7 & AOD 2 23 Nov 21:07:13 21:09:34 15° 267° (W) 21:11:57 437.475
PHONESAT 2.4 23 Nov 21:15:45 21:19:09 35° 212° (SSW) 21:22:32 2401.200-2431.200
TIGRISAT 23 Nov 21:15:47 21:17:47 13° 93° (E) 21:19:46 435.000
GOMX 1 23 Nov 21:18:46 21:22:17 19° 264° (W) 21:25:39 467.674
FUNcube-1 23 Nov 21:18:55 21:23:10 87° 256° (WSW) 21:27:23 145.935
UKube-1 23 Nov 21:20:20 21:24:20 36° 261° (W) 21:28:21 .
BEESAT 3 23 Nov 21:22:06 21:24:36 16° 310° (NW) 21:27:08 437.485
CUBEBUG 1 23 Nov 21:23:25 21:26:50 22° 69° (ENE) 21:30:15 437.445
UNISAT 6 23 Nov 21:27:02 21:30:07 18° 95° (E) 21:33:13 437.425
CUBEBUG 2 23 Nov 21:33:22 21:37:27 40° 261° (W) 21:41:27 437.445
Oscar 11 23 Nov 21:34:21 21:37:44 23° 264° (W) 21:41:08 145.826/435.025
BEESAT 2 23 Nov 21:36:08 21:38:03 13° 312° (NW) 21:39:59 435.950
NANOSAT C BR1 23 Nov 21:36:09 21:38:24 14° 94° (E) 21:40:39 145.865
VERMONT LUNAR 23 Nov 21:38:10 21:40:27 16° 218° (SW) 21:42:44 437.305
UWE-3 23 Nov 21:38:56 21:42:58 40° 261° (W) 21:46:57 435.000/436.395/437.385
RS-15 23 Nov 21:41:52 21:45:40 12° 13° (NNE) 21:49:30 29.354- 29.394
CINEMA 3 23 Nov 21:43:16 21:46:36 20° 264° (W) 21:49:51 145.822/145.860
QB50P1 23 Nov 21:45:04 21:48:01 18° 95° (E) 21:50:57 145.935-145.965
ANTELSAT 23 Nov 21:54:34 21:58:43 38° 99° (E) 22:02:57 437.575/2403.000
DX 1 23 Nov 21:55:08 21:57:34 15° 266° (W) 22:00:02 434.975-435.025
AIST 2 23 Nov 21:58:41 22:01:13 15° 311° (NW) 22:03:47 435.215
ESTCUBE 1 23 Nov 22:01:09 22:05:38 63° 75° (ENE) 22:10:09 437.505/2401.250
BUGSAT 1 23 Nov 22:08:29 22:12:00 28° 97° (E) 22:15:29 437.445
POPSAT HIP 1 23 Nov 22:08:44 22:12:37 35° 98° (E) 22:16:29 437.405
VELOX 1 23 Nov 22:12:07 22:16:08 32° 262° (W) 22:20:10 145.980
ZACube-1 23 Nov 22:21:19 22:23:53 16° 266° (W) 22:26:26 437.345
HUMSAT D 23 Nov 22:22:16 22:25:39 24° 264° (W) 22:29:02 437.325/437.525
50 SAT 23 Nov 22:27:46 22:31:05 24° 264° (W) 22:34:23 437.505
ISS 23 Nov 22:33:24 22:36:01 22° 130° (SE) 22:38:39 145.825
AISAT 23 Nov 22:38:07 22:41:01 17° 266° (W) 22:43:55 437.250
POLYITAN 1 23 Nov 22:40:28 22:44:42 88° 284° (WNW) 22:48:56 437.675
QB50P2 23 Nov 22:43:31 22:47:46 81° 283° (WNW) 22:51:59 145.880/145.840
TIGRISAT 23 Nov 22:50:28 22:54:42 47° 286° (WNW) 22:59:01 435.000
DUCHIFAT 1 23 Nov 22:51:16 22:55:27 66° 284° (WNW) 22:59:36 145.980
TISAT 1 23 Nov 22:54:30 22:58:43 59° 75° (ENE) 23:02:55 437.305
SPROUT 23 Nov 22:56:36 23:00:48 52° 75° (ENE) 23:05:01 437.525
CUBEBUG 1 23 Nov 22:59:12 23:03:01 28° 263° (W) 23:06:52 437.445
UNISAT 6 23 Nov 23:02:56 23:06:56 33° 288° (WNW) 23:10:59 437.425
AUBIESAT-1 23 Nov 23:09:18 23:12:18 21° 63° (ENE) 23:15:30 437.475
NANOSAT C BR1 23 Nov 23:10:30 23:14:24 37° 287° (WNW) 23:18:17 145.865
M-CUBED/EXP-1 PRIME 23 Nov 23:12:29 23:15:44 25° 64° (ENE) 23:19:13 437.505
BEESAT 23 Nov 23:18:01 23:20:47 16° 66° (ENE) 23:23:34 436.000
QB50P1 23 Nov 23:20:16 23:23:55 29° 289° (WNW) 23:27:33 145.935-145.965
ANTELSAT 23 Nov 23:32:24 23:35:13 17° 292° (WNW) 23:38:04 437.575/2403.000
BUGSAT 1 23 Nov 23:44:29 23:47:17 18° 291° (WNW) 23:50:04 437.445
CUSAT 1 23 Nov 23:45:29 23:50:10 75° 82° (E) 23:56:30 437.405
POPSAT HIP 1 23 Nov 23:45:41 23:48:13 16° 292° (WNW) 23:50:44 437.405
RS-15 23 Nov 23:53:05 00:03:03 35° 46° (NE) 00:13:20 29.354- 29.394
DANDE 24 Nov 00:00:39 00:05:10 88° 82° (E) 00:11:22 436.750
Oscar 19 24 Nov 00:05:16 00:08:11 15° 93° (E) 00:11:06 437.125/150
ISS 24 Nov 00:09:41 00:12:34 28° 324° (NW) 00:15:27 145.825
ITUPSAT 1 24 Nov 00:09:56 00:14:37 55° 74° (ENE) 00:19:19 437.325
MaSat-1 24 Nov 00:15:28 00:16:31 12° 61° (ENE) 00:17:35 437.345
SWISSCUBE 24 Nov 00:21:43 00:26:31 82° 76° (ENE) 00:31:21 437.505
KKS-1 24 Nov 00:23:55 00:26:16 14° 66° (ENE) 00:28:37 437.445
JUGNU 24 Nov 00:26:40 00:30:24 17° 173° (S) 00:34:10 437.505
SRMSAT 24 Nov 00:34:19 00:36:31 12° 166° (SSE) 00:38:44 437.500
SPROUT 24 Nov 00:36:13 00:37:09 11° 268° (W) 00:38:04 437.525
AUBIESAT-1 24 Nov 00:43:53 00:47:08 26° 260° (W) 00:50:39 437.475
M-CUBED/EXP-1 PRIME 24 Nov 00:47:47 00:50:45 21° 262° (W) 00:53:55 437.505
ITAMSAT 1 24 Nov 00:52:47 00:55:59 16° 94° (E) 00:59:10 435.822/435.867
BEESAT 24 Nov 00:53:35 00:58:11 48° 260° (W) 01:02:50 436.000
Gurwin Techsat 1B 24 Nov 01:11:31 01:14:16 14° 92° (E) 01:17:00 435.225
STARS 24 Nov 01:22:35 01:26:46 43° 73° (ENE) 01:30:57 437.465
CUSAT 1 24 Nov 01:32:49 01:33:15 10° 268° (W) 01:33:42 437.405
YUBILEINY 24 Nov 01:41:12 01:49:27 46° 89° (E) 01:57:40 435.215
Oscar 19 24 Nov 01:42:46 01:47:46 53° 287° (WNW) 01:52:47 437.125/150
ITUPSAT 1 24 Nov 01:50:42 01:52:47 13° 268° (W) 01:54:52 437.325
KKS-1 24 Nov 01:58:13 02:02:29 45° 260° (W) 02:06:46 437.445
RS-15 24 Nov 02:04:59 02:16:09 68° 247° (WSW) 02:27:50 29.354- 29.394
JUGNU 24 Nov 02:14:41 02:18:45 19° 183° (S) 02:22:49 437.505
SRMSAT 24 Nov 02:20:58 02:24:59 19° 175° (S) 02:28:59 437.500
SO-50 24 Nov 02:24:41 02:27:07 15° 108° (ESE) 02:29:35 436.795
ITAMSAT 1 24 Nov 02:30:43 02:35:41 48° 288° (WNW) 02:40:38 435.822/435.867
MOZHAYETS 4 24 Nov 02:48:40 02:50:51 13° 66° (ENE) 02:53:02
Gurwin Techsat 1B 24 Nov 02:49:20 02:54:33 58° 286° (WNW) 02:59:43 435.225
STARS 24 Nov 03:01:14 03:03:25 14° 267° (W) 03:05:36 437.465
HORYU 2 24 Nov 03:08:42 03:13:11 75° 284° (WNW) 03:17:40 437.375
AO-7 24 Nov 03:30:05 03:38:08 49° 102° (ESE) 03:46:07 29.400- 29.500
YUBILEINY 24 Nov 03:38:36 03:46:19 34° 286° (WNW) 03:54:04 435.215
JAS-2 24 Nov 03:47:39 03:52:28 20° 90° (E) 03:56:54 435.910
SO-50 24 Nov 04:02:51 04:07:10 47° 303° (WNW) 04:11:39 436.795
JUGNU 24 Nov 04:04:18 04:07:04 13° 193° (SSW) 04:09:50 437.505
BEESAT 3 24 Nov 04:07:23 04:08:54 12° 47° (NE) 04:10:25 437.485
SRMSAT 24 Nov 04:09:32 04:13:29 18° 186° (S) 04:17:25 437.500
PCSat 24 Nov 04:13:15 04:17:43 25° 55° (NE) 04:22:09 145.827
BEESAT 2 24 Nov 04:20:17 04:22:38 14° 49° (NE) 04:24:57 435.950
MOZHAYETS 4 24 Nov 04:23:08 04:27:35 51° 260° (W) 04:32:04
RS-15 24 Nov 04:24:20 04:26:29 11° 263° (W) 04:28:40 29.354- 29.394
AIST 2 24 Nov 04:45:05 04:47:14 13° 48° (NE) 04:49:23 435.215
PRISM 24 Nov 04:46:50 04:50:53 50° 74° (ENE) 04:54:59 437.425
Cubesat XI-IV 24 Nov 04:53:54 04:57:12 17° 93° (E) 05:00:28 437.490
ISS 24 Nov 05:06:13 05:06:32 10° 25° (NNE) 05:06:50 145.825
O/OREOS (USA 219) 24 Nov 05:23:14 05:27:32 47° 106° (ESE) 05:31:50 437.305
AO-7 24 Nov 05:23:20 05:30:34 34° 298° (WNW) 05:37:48 29.400- 29.500
JAS-2 24 Nov 05:31:07 05:38:03 58° 288° (WNW) 05:44:10 435.910
CUTE-I 24 Nov 05:34:31 05:39:33 42° 99° (E) 05:44:32 437.470
STRAND 1 24 Nov 05:36:49 05:41:54 64° 74° (ENE) 05:47:00 437.568
BEESAT 3 24 Nov 05:43:24 05:47:33 65° 244° (WSW) 05:51:38 437.485
PCSat 24 Nov 05:56:12 06:01:11 39° 251° (WSW) 06:06:09 145.827
BEESAT 2 24 Nov 05:57:08 06:01:12 50° 245° (WSW) 06:05:12 435.950
CUBESAT XI-V 24 Nov 05:58:03 06:02:46 74° 258° (WSW) 06:07:30 437.345
SRMSAT 24 Nov 06:00:08 06:01:56 11° 195° (SSW) 06:03:44 437.500
AIST 2 24 Nov 06:22:01 06:26:14 57° 244° (WSW) 06:30:22 435.215
PRISM 24 Nov 06:25:59 06:26:41 10° 268° (W) 06:27:24 437.425
Cubesat XI-IV 24 Nov 06:32:23 06:37:31 51° 288° (WNW) 06:42:37 437.490
AIST 1 24 Nov 06:36:16 06:40:38 67° 82° (E) 06:44:56
ISS 24 Nov 06:40:26 06:43:43 65° 41° (NE) 06:46:59 145.825
O/OREOS (USA 219) 24 Nov 07:04:45 07:07:10 14° 301° (WNW) 07:09:36 437.305
CUTE-I 24 Nov 07:15:25 07:19:16 21° 294° (WNW) 07:23:07 437.470
STRAND 1 24 Nov 07:19:30 07:21:27 12° 268° (W) 07:23:24 437.568
GONETS M04 24 Nov 07:30:47 07:39:10 52° 90° (E) 07:47:35
GOMX 1 24 Nov 07:47:18 07:48:28 11° 93° (E) 07:49:38 467.674
SEEDS 24 Nov 07:54:59 07:58:05 19° 95° (E) 08:01:11 437.485
BRITE-PL 24 Nov 08:03:28 08:06:57 26° 97° (E) 08:10:28 437.365/2234.400
HO-68 24 Nov 08:03:30 08:10:10 40° 99° (E) 08:16:46 435.675
AAUSAT CUBESAT 2 24 Nov 08:15:38 08:19:08 25° 96° (E) 08:22:38 437.432
CANX-2 24 Nov 08:19:15 08:23:26 50° 100° (E) 08:27:36 2200.000
UNISAT 6 24 Nov 08:25:43 08:26:30 10° 65° (ENE) 08:27:17 437.425
COMPASS 1 24 Nov 08:29:04 08:33:06 42° 99° (E) 08:37:08 437.405
DELFI C3 24 Nov 08:31:58 08:34:23 15° 94° (E) 08:36:48 145.870
DOVE 4 24 Nov 08:49:50 08:53:53 49° 100° (E) 08:58:03 437.250
ANTELSAT 24 Nov 08:51:29 08:54:46 22° 70° (ENE) 08:58:03 437.575/2403.000
CUTE 1.7 & AOD 2 24 Nov 08:54:08 08:58:24 66° 284° (WNW) 09:02:39 437.475
BUGSAT 1 24 Nov 08:56:53 08:59:09 14° 67° (ENE) 09:01:25 437.445
POPSAT HIP 1 24 Nov 08:59:29 09:02:26 19° 69° (ENE) 09:05:23 437.405
UKube-1 24 Nov 09:11:32 09:15:44 48° 100° (E) 09:19:54 .
FUNcube-1 24 Nov 09:11:45 09:15:06 22° 96° (E) 09:18:29 145.935
GOMX 1 24 Nov 09:22:50 09:26:48 45° 286° (WNW) 09:30:51 467.674
Oscar 11 24 Nov 09:24:13 09:28:35 83° 102° (ESE) 09:32:56 145.826/435.025
CUBEBUG 2 24 Nov 09:27:48 09:31:56 50° 100° (E) 09:36:09 437.445
GONETS M04 24 Nov 09:28:46 09:36:12 30° 287° (WNW) 09:43:44
SEEDS 24 Nov 09:30:14 09:33:53 28° 288° (WNW) 09:37:33 437.485
POLYITAN 1 24 Nov 09:30:33 09:34:36 43° 74° (ENE) 09:38:39 437.675
UWE-3 24 Nov 09:32:13 09:36:19 48° 100° (E) 09:40:31 435.000/436.395/437.385
QB50P2 24 Nov 09:33:19 09:37:25 47° 74° (ENE) 09:41:31 145.880/145.840
CINEMA 3 24 Nov 09:40:22 09:44:33 67° 284° (WNW) 09:48:52 145.822/145.860
DUCHIFAT 1 24 Nov 09:40:35 09:44:46 57° 75° (ENE) 09:48:56 145.980
BRITE-PL 24 Nov 09:42:22 09:45:19 19° 290° (WNW) 09:48:18 437.365/2234.400
DX 1 24 Nov 09:45:02 09:49:20 64° 285° (WNW) 09:53:37 434.975-435.025
TIGRISAT 24 Nov 09:45:56 09:50:13 82° 258° (WSW) 09:54:29 435.000
HO-68 24 Nov 09:51:24 09:57:40 34° 295° (WNW) 10:03:55 435.675
AAUSAT CUBESAT 2 24 Nov 09:51:24 09:54:40 22° 290° (WNW) 09:57:56 437.432
CANX-2 24 Nov 09:57:16 09:58:54 12° 294° (WNW) 10:00:32 2200.000
UNISAT 6 24 Nov 09:58:35 10:02:47 56° 260° (W) 10:07:00 437.425
ESTCUBE 1 24 Nov 09:58:52 10:01:55 18° 94° (E) 10:04:57 437.505/2401.250
NANOSAT C BR1 24 Nov 09:59:34 10:03:50 82° 258° (WSW) 10:08:06 145.865
DELFI C3 24 Nov 10:06:01 10:09:46 34° 287° (WNW) 10:13:30 145.870
VELOX 1 24 Nov 10:06:10 10:10:33 62° 101° (E) 10:14:54 145.980
COMPASS 1 24 Nov 10:06:18 10:08:27 14° 293° (WNW) 10:10:36 437.405
QB50P1 24 Nov 10:09:15 10:13:28 62° 259° (W) 10:17:42 145.935-145.965
HUMSAT D 24 Nov 10:09:33 10:13:42 68° 101° (E) 10:17:54 437.325/437.525
50 SAT 24 Nov 10:11:30 10:15:30 58° 101° (E) 10:19:31 437.505
ZACube-1 24 Nov 10:11:41 10:15:52 65° 284° (WNW) 10:20:08 437.345
ANTELSAT 24 Nov 10:27:54 10:31:26 25° 263° (W) 10:34:59 437.575/2403.000
DOVE 4 24 Nov 10:30:03 10:31:16 11° 293° (WNW) 10:32:29 437.250
BUGSAT 1 24 Nov 10:30:14 10:34:16 41° 261° (W) 10:38:18 437.445
AISAT 24 Nov 10:31:13 10:35:36 65° 285° (WNW) 10:39:57 437.250
POPSAT HIP 1 24 Nov 10:34:19 10:38:06 30° 262° (W) 10:41:53 437.405
TISAT 1 24 Nov 10:45:24 10:47:06 12° 93° (E) 10:48:47 437.305
FUNcube-1 24 Nov 10:47:56 10:51:22 24° 289° (WNW) 10:54:51 145.935
SPROUT 24 Nov 10:49:15 10:50:53 12° 92° (E) 10:52:32 437.525
UKube-1 24 Nov 10:49:31 10:51:27 13° 294° (WNW) 10:53:22 .
CUBEBUG 1 24 Nov 10:51:20 10:55:41 70° 101° (ESE) 11:00:00 437.445
CUBEBUG 2 24 Nov 11:06:44 11:08:13 12° 293° (WNW) 11:09:42 437.445
POLYITAN 1 24 Nov 11:08:53 11:10:43 13° 267° (W) 11:12:34 437.675
UWE-3 24 Nov 11:10:48 11:12:27 12° 293° (WNW) 11:14:07 435.000/436.395/437.385
QB50P2 24 Nov 11:12:06 11:13:33 12° 267° (W) 11:15:00 145.880/145.840
Oscar 19 24 Nov 11:19:11 11:22:14 16° 65° (ENE) 11:25:18 437.125/150
ESTCUBE 1 24 Nov 11:34:44 11:38:52 35° 288° (WNW) 11:42:58 437.505/2401.250
VELOX 1 24 Nov 11:45:49 11:46:34 10° 296° (WNW) 11:47:19 145.980
YUBILEINY 24 Nov 11:57:15 12:02:46 18° 67° (ENE) 12:08:13 435.215
ITAMSAT 1 24 Nov 12:07:32 12:11:06 19° 66° (ENE) 12:14:40 435.822/435.867
ITUPSAT 1 24 Nov 12:15:20 12:18:44 19° 95° (E) 12:22:06 437.325
TISAT 1 24 Nov 12:19:08 12:23:07 43° 286° (WNW) 12:27:05 437.305
SPROUT 24 Nov 12:23:06 12:27:11 45° 286° (WNW) 12:31:15 437.525
SWISSCUBE 24 Nov 12:26:26 12:30:33 28° 97° (E) 12:34:37 437.505
AUBIESAT-1 24 Nov 12:29:07 12:33:37 36° 102° (ESE) 12:37:59 437.475
Gurwin Techsat 1B 24 Nov 12:29:15 12:32:36 17° 65° (ENE) 12:35:58 435.225
M-CUBED/EXP-1 PRIME 24 Nov 12:32:53 12:37:35 43° 103° (ESE) 12:42:09 437.505
SO-50 24 Nov 12:37:24 12:42:13 58° 59° (ENE) 12:47:02 436.795
VERMONT LUNAR 24 Nov 12:49:21 12:50:43 12° 140° (SE) 12:52:05 437.305
Oscar 19 24 Nov 12:56:09 13:01:06 51° 260° (W) 13:06:06 437.125/150
CUSAT 1 24 Nov 12:57:09 12:59:59 43° 279° (W) 13:02:30 437.405
BEESAT 24 Nov 12:57:26 13:02:10 57° 101° (E) 13:06:51 436.000
DANDE 24 Nov 13:15:13 13:17:57 29° 279° (W) 13:20:22 436.750
STARS 24 Nov 13:19:08 13:20:00 11° 92° (E) 13:20:52 437.465
ITAMSAT 1 24 Nov 13:45:13 13:50:12 46° 260° (W) 13:55:12 435.822/435.867
YUBILEINY 24 Nov 13:51:47 14:00:30 81° 266° (W) 14:09:09 435.215
ITUPSAT 1 24 Nov 13:52:17 13:56:41 37° 289° (WNW) 14:01:04 437.325
KKS-1 24 Nov 13:53:02 13:57:16 44° 99° (E) 14:01:30 437.445
HORYU 2 24 Nov 14:03:47 14:08:09 65° 75° (ENE) 14:12:33 437.375
SWISSCUBE 24 Nov 14:04:21 14:08:16 25° 291° (WNW) 14:12:08 437.505
AUBIESAT-1 24 Nov 14:04:30 14:08:20 23° 296° (WNW) 14:12:06 437.475
Gurwin Techsat 1B 24 Nov 14:06:57 14:12:06 52° 260° (W) 14:17:17 435.225
PHONESAT 2.4 24 Nov 14:07:07 14:10:31 35° 148° (SSE) 14:13:56 2401.200-2431.200
M-CUBED/EXP-1 PRIME 24 Nov 14:08:43 14:12:15 20° 297° (WNW) 14:15:43 437.505
RS-15 24 Nov 14:14:43 14:23:08 26° 103° (ESE) 14:31:26 29.354- 29.394
SO-50 24 Nov 14:19:48 14:22:16 14° 253° (WSW) 14:24:43 436.795
VERMONT LUNAR 24 Nov 14:25:09 14:28:45 69° 153° (SSE) 14:32:22 437.305
AO-7 24 Nov 14:25:11 14:33:00 49° 66° (ENE) 14:40:52 29.400- 29.500
BEESAT 24 Nov 14:37:17 14:39:28 13° 295° (WNW) 14:41:40 436.000
STARS 24 Nov 14:52:28 14:56:45 54° 286° (WNW) 15:01:02 437.465
MaSat-1 24 Nov 15:14:14 15:17:05 33° 295° (WNW) 15:19:42 437.345
KKS-1 24 Nov 15:31:08 15:33:30 14° 294° (WNW) 15:35:53 437.445
O/OREOS (USA 219) 24 Nov 15:36:34 15:40:55 49° 68° (ENE) 15:45:15 437.305
JAS-2 24 Nov 15:36:51 15:43:56 47° 69° (ENE) 15:51:21 435.910
PHONESAT 2.4 24 Nov 15:45:37 15:49:15 53° 343° (NNW) 15:52:54 2401.200-2431.200
YUBILEINY 24 Nov 15:53:01 15:55:47 12° 283° (WNW) 15:58:33 435.215
VERMONT LUNAR 24 Nov 16:04:01 16:07:24 37° 349° (N) 16:10:48 437.305
Cubesat XI-IV 24 Nov 16:12:31 16:16:25 21° 66° (ENE) 16:20:18 437.490
AO-7 24 Nov 16:18:41 16:25:52 33° 262° (W) 16:33:08 29.400- 29.500
MOZHAYETS 4 24 Nov 16:21:55 16:26:26 49° 99° (E) 16:30:56
RS-15 24 Nov 16:23:26 16:34:24 71° 301° (WNW) 16:45:20 29.354- 29.394
CUTE-I 24 Nov 16:52:53 16:58:02 50° 72° (ENE) 17:03:12 437.470
O/OREOS (USA 219) 24 Nov 17:18:13 17:19:48 12° 262° (W) 17:21:23 437.305
JAS-2 24 Nov 17:22:28 17:28:58 33° 266° (W) 17:35:50 435.910
PHONESAT 2.4 24 Nov 17:25:08 17:28:29 31° 360° (N) 17:31:51 2401.200-2431.200
VERMONT LUNAR 24 Nov 17:43:05 17:46:24 32° 6° (N) 17:49:42 437.305
GONETS M04 24 Nov 17:46:41 17:52:54 21° 69° (ENE) 17:59:03
Cubesat XI-IV 24 Nov 17:51:04 17:56:09 43° 261° (W) 18:01:15 437.490
STRAND 1 24 Nov 17:51:32 17:55:55 28° 97° (E) 18:00:16 437.568
CUBESAT XI-V 24 Nov 17:58:55 18:03:13 36° 98° (E) 18:07:27 437.345
MOZHAYETS 4 24 Nov 18:00:45 18:03:12 14° 294° (WNW) 18:05:40
PRISM 24 Nov 18:09:02 18:13:11 55° 286° (WNW) 18:17:18 437.425
